Weather History for North Bend, OR

Change the Weather History Date:

Sunday, February 3, 2013

  Actual Average Record
Temperature  
Mean Temperature 49 °F 46 °F  
Max Temperature 52 °F 52 °F 66 °F (1935)
Min Temperature 45 °F 40 °F 21 °F (1989)
Degree Days  
Heating Degree Days 16 19  
Month to date heating degree days 49 57  
Since 1 July heating degree days 2556 2712  
Cooling Degree Days 0 0  
Month to date cooling degree days 0 0  
Year to date cooling degree days 0 0  
Moisture  
Dew Point 45 °F    
Average Humidity 89    
Maximum Humidity 100    
Minimum Humidity 71    
Precipitation  
Precipitation 0.00 in 0.28 in 5.16 in (1937)
Month to date precipitation 0.00 0.83  
Year to date precipitation 3.95 11.02  
Sea Level Pressure  
Sea Level Pressure 30.30 in    
Wind  
Wind Speed 2 mph (ESE)    
Max Wind Speed 7 mph    
Max Gust Speed -    
Visibility 10 miles    
Events      
T = Trace of Precipitation, MM = Missing Value Source: NWS Daily Summary

Daily Weather History Graph

Daily Weather History Graph

Search for Another Location

Airport:

Trip Planner

Search our weather history database for the weather conditions in past years. The results will help you decide how hot, cold, wet, or windy it might be!

Date:

Astronomy

Feb. 03, 2013 Rise Set
Actual Time 7:30 AM PST 5:31 PM PST
Civil Twilight 7:00 AM PST 6:02 PM PST
Nautical Twilight 6:26 AM PST 6:36 PM PST
Astronomical Twilight 5:52 AM PST 7:09 PM PST
Moon 1:05 AM PST (2/3) 11:12 AM PST (2/3)
Length of Visible Light 11h 01m
Length of Day
10h 01m
Waning Gibbous, 47% of the Moon is Illuminated
Feb 3
Waning Gibbous
Feb 9
New
Feb 17
First Quarter
Feb 25
Full
Mar 4
Last Quarter

Hourly Weather History & Observations

Time (PST) Temp. Windchill Dew Point Humidity Pressure Visibility Wind Dir Wind Speed Gust Speed Precip Events Conditions
12:15 AM 48.2 °F - 46.4 °F 93% 30.35 in 9.0 mi East 3.5 mph - N/A   Overcast
12:35 AM 48.2 °F - 46.4 °F 93% 30.34 in 10.0 mi SSE 4.6 mph - N/A   Overcast
12:55 AM 48.2 °F - 46.4 °F 93% 30.34 in 10.0 mi South 4.6 mph - N/A   Overcast
1:15 AM 46.4 °F 44.3 °F 46.4 °F 100% 30.33 in 10.0 mi SSE 4.6 mph - N/A   Overcast
1:35 AM 46.4 °F 44.3 °F 46.4 °F 100% 30.33 in 10.0 mi SSE 4.6 mph - N/A   Overcast
1:55 AM 46.4 °F 44.3 °F 46.4 °F 100% 30.32 in 10.0 mi SSE 4.6 mph - N/A   Overcast
2:15 AM 46.4 °F - 46.4 °F 100% 30.33 in 10.0 mi Calm Calm - N/A   Overcast
2:35 AM 46.4 °F 45.2 °F 46.4 °F 100% 30.32 in 10.0 mi SE 3.5 mph - N/A   Overcast
2:55 AM 46.4 °F 45.2 °F 46.4 °F 100% 30.31 in 10.0 mi SE 3.5 mph - N/A   Overcast
3:15 AM 46.4 °F - 46.4 °F 100% 30.31 in 10.0 mi Calm Calm - N/A   Overcast
3:35 AM 46.4 °F - 46.4 °F 100% 30.31 in 10.0 mi Calm Calm - N/A   Overcast
3:55 AM 46.4 °F - 46.4 °F 100% 30.31 in 10.0 mi Calm Calm - N/A   Overcast
4:15 AM 46.4 °F 45.2 °F 44.6 °F 93% 30.32 in 10.0 mi WNW 3.5 mph - N/A   Overcast
4:35 AM 46.4 °F - 44.6 °F 93% 30.32 in 10.0 mi Calm Calm - N/A   Overcast
4:55 AM 46.4 °F - 44.6 °F 93% 30.33 in 10.0 mi Calm Calm - N/A   Overcast
5:15 AM 46.4 °F - 44.6 °F 93% 30.32 in 10.0 mi Calm Calm - N/A   Overcast
5:35 AM 46.4 °F - 46.4 °F 100% 30.31 in 10.0 mi Calm Calm - N/A   Overcast
5:55 AM 46.4 °F - 46.4 °F 100% 30.31 in 10.0 mi Calm Calm - N/A   Overcast
6:15 AM 46.4 °F 45.2 °F 46.4 °F 100% 30.31 in 10.0 mi ESE 3.5 mph - N/A   Overcast
6:35 AM 46.4 °F 43.5 °F 46.4 °F 100% 30.31 in 10.0 mi ESE 5.8 mph - N/A   Overcast
6:55 AM 46.4 °F 44.3 °F 44.6 °F 93% 30.31 in 10.0 mi ESE 4.6 mph - N/A   Overcast
7:15 AM 46.4 °F 45.2 °F 44.6 °F 93% 30.32 in 10.0 mi East 3.5 mph - N/A   Overcast
7:35 AM 46.4 °F 45.2 °F 44.6 °F 93% 30.32 in 10.0 mi East 3.5 mph - N/A   Overcast
7:55 AM 46.4 °F 43.5 °F 44.6 °F 93% 30.31 in 10.0 mi ESE 5.8 mph - N/A   Overcast
8:15 AM 46.4 °F 44.3 °F 44.6 °F 93% 30.32 in 10.0 mi SE 4.6 mph - N/A   Overcast
8:35 AM 46.4 °F 43.5 °F 44.6 °F 93% 30.32 in 10.0 mi SE 5.8 mph - N/A   Overcast
8:55 AM 48.2 °F - 44.6 °F 87% 30.33 in 10.0 mi SE 3.5 mph - N/A   Overcast
9:15 AM 48.2 °F - 44.6 °F 87% 30.33 in 10.0 mi SE 5.8 mph - N/A   Overcast
9:35 AM 48.2 °F - 44.6 °F 87% 30.33 in 10.0 mi SSE 5.8 mph - N/A   Overcast
9:55 AM 48.2 °F - 44.6 °F 87% 30.34 in 10.0 mi SE 4.6 mph - N/A   Overcast
10:15 AM 50.0 °F - 44.6 °F 82% 30.34 in 10.0 mi SE 4.6 mph - N/A   Overcast
10:35 AM 50.0 °F - 44.6 °F 82% 30.35 in 10.0 mi ESE 3.5 mph - N/A   Overcast
10:55 AM 50.0 °F - 44.6 °F 82% 30.34 in 10.0 mi East 3.5 mph - N/A   Overcast
11:15 AM 50.0 °F - 44.6 °F 82% 30.35 in 10.0 mi Calm Calm - N/A   Overcast
11:35 AM 51.8 °F - 44.6 °F 76% 30.34 in 10.0 mi Calm Calm - N/A   Overcast
11:55 AM 51.8 °F - 44.6 °F 76% 30.33 in 10.0 mi ESE 3.5 mph - N/A   Overcast
12:15 PM 51.8 °F - 44.6 °F 76% 30.32 in 10.0 mi Calm Calm - N/A   Overcast
12:35 PM 51.8 °F - 44.6 °F 76% 30.32 in 10.0 mi Calm Calm - N/A   Overcast
12:55 PM 51.8 °F - 42.8 °F 71% 30.31 in 10.0 mi Calm Calm - N/A   Overcast
1:15 PM 51.8 °F - 42.8 °F 71% 30.30 in 10.0 mi Calm Calm - N/A   Overcast
1:35 PM 51.8 °F - 44.6 °F 76% 30.29 in 10.0 mi Calm Calm - N/A   Overcast
1:55 PM 51.8 °F - 44.6 °F 76% 30.28 in 10.0 mi Calm Calm - N/A   Overcast
2:15 PM 51.8 °F - 44.6 °F 76% 30.28 in 10.0 mi Calm Calm - N/A   Overcast
2:35 PM 51.8 °F - 44.6 °F 76% 30.27 in 9.0 mi West 3.5 mph - N/A   Overcast
2:55 PM 51.8 °F - 44.6 °F 76% 30.27 in 6.0 mi West 3.5 mph - N/A   Overcast
3:15 PM 51.8 °F - 44.6 °F 76% 30.28 in 9.0 mi NW 5.8 mph - N/A   Overcast
3:35 PM 51.8 °F - 44.6 °F 76% 30.28 in 9.0 mi NNW 3.5 mph - N/A   Overcast
3:55 PM 50.0 °F - 44.6 °F 82% 30.28 in 8.0 mi NNW 6.9 mph - N/A   Overcast
4:15 PM 50.0 °F - 44.6 °F 82% 30.28 in 9.0 mi NNW 5.8 mph - N/A   Overcast
4:35 PM 50.0 °F - 44.6 °F 82% 30.28 in 10.0 mi North 4.6 mph - N/A   Overcast
4:55 PM 50.0 °F - 44.6 °F 82% 30.28 in 9.0 mi North 4.6 mph - N/A   Overcast
5:15 PM 50.0 °F - 44.6 °F 82% 30.28 in 7.0 mi North 3.5 mph - N/A   Overcast
5:35 PM 48.2 °F - 44.6 °F 87% 30.28 in 8.0 mi Calm Calm - N/A   Overcast
5:55 PM 48.2 °F - 44.6 °F 87% 30.28 in 10.0 mi Calm Calm - N/A   Overcast
6:15 PM 48.2 °F - 44.6 °F 87% 30.28 in 10.0 mi Calm Calm - N/A   Overcast
6:35 PM 48.2 °F - 44.6 °F 87% 30.28 in 10.0 mi Calm Calm - N/A   Overcast
6:55 PM 48.2 °F - 44.6 °F 87% 30.28 in 10.0 mi Calm Calm - N/A   Overcast
7:15 PM 48.2 °F - 46.4 °F 93% 30.28 in 10.0 mi Calm Calm - N/A   Overcast
7:35 PM 48.2 °F - 46.4 °F 93% 30.28 in 10.0 mi Calm Calm - N/A   Overcast
7:55 PM 48.2 °F - 46.4 °F 93% 30.28 in 10.0 mi Calm Calm - N/A   Overcast
8:15 PM 48.2 °F - 46.4 °F 93% 30.27 in 10.0 mi Calm Calm - N/A   Overcast
8:35 PM 48.2 °F - 46.4 °F 93% 30.27 in 10.0 mi Calm Calm - N/A   Overcast
8:55 PM 46.4 °F 45.2 °F 44.6 °F 93% 30.27 in 10.0 mi ESE 3.5 mph - N/A   Overcast
9:15 PM 46.4 °F - 44.6 °F 93% 30.27 in 10.0 mi Calm Calm - N/A   Overcast
9:35 PM 46.4 °F - 44.6 °F 93% 30.26 in 10.0 mi Calm Calm - N/A   Overcast
9:55 PM 46.4 °F - 44.6 °F 93% 30.27 in 10.0 mi Calm Calm - N/A   Overcast
10:15 PM 46.4 °F 45.2 °F 44.6 °F 93% 30.26 in 10.0 mi NNE 3.5 mph - N/A   Mostly Cloudy
10:35 PM 46.4 °F 45.2 °F 44.6 °F 93% 30.26 in 10.0 mi North 3.5 mph - N/A   Overcast
10:55 PM 46.4 °F - 44.6 °F 93% 30.25 in 10.0 mi Calm Calm - N/A   Overcast
11:15 PM 44.6 °F 43.1 °F 42.8 °F 93% 30.25 in 10.0 mi North 3.5 mph - N/A   Overcast
11:35 PM 44.6 °F 43.1 °F 42.8 °F 93% 30.26 in 10.0 mi NNE 3.5 mph - N/A   Mostly Cloudy
11:55 PM 44.6 °F 43.1 °F 44.6 °F 100% 30.25 in 10.0 mi NNE 3.5 mph - N/A   Scattered Clouds